Content
SEND FEEDBACK

Daily
Averages
Monthly
Summary
United States of America

ROCK HILL, NEW YORK


Home > North America > United States > New York
Elevation: 1260 feet     Latitude: 41 35N     Longitude: 074 37W

WEATHER
 
SELECT A DAY
Number of Records: 451,142;   Date Range: 1/1/95 - 10/29/14
 
SHARE

PRINT THIS DATA

[ ← Previous Day ]
WEATHER ALMANAC - DECEMBER 23, 2013
[ Next Day → ]
[ °C ]   °F
Weather ElementAverageHighLow
Temperature44.1 °F53.6 °F (1:15 am)30.2 °F (10:35 pm)
Dewpoint38.6 °F48.2 °F (12:55 am)17.6 °F (11:35 pm)
Humidity81 %88 % (12:55 am)60 % (9:55 pm)
Barometer30.02 in30.15 in (10:15 pm)29.94 in (5:55 am)
Wind Speed6.4 mph18.4 mph (5:35 pm)
Wind Gust25.3 mph (5:15 pm)
Weather ElementAverage
Visibility5.6 mi
Wind DirectionSSW (205.4 °)

Weather ElementTotal
Precipitation0.86 in
Heating Degree Days23.1 (Base 65)
Averaged from 71 records on December 23, 2013
WEATHER CONDITIONS BREAKOUT
WIND DIRECTION BREAKOUT
WEATHER BY HOUR - DECEMBER 23, 2013
[ °C ]   °F
Local TimeTemperatureDewpointHumidityBarometerVisibilityWind DirectionWind SpeedGust SpeedPrecipitationEventsConditions
12:35 AM51.8 °F46.4 °F82 %29.95 in5.0 miSSW (200°)3.5 mphClear
12:55 AM51.8 °F48.2 °F88 %29.96 in4.0 miSSW (200°)4.6 mphPartly Cloudy
1:15 AM53.6 °F48.2 °F82 %29.96 in5.0 miCalmPartly Cloudy
1:35 AM53.6 °F48.2 °F82 %29.95 in4.0 miCalmClear
1:55 AM51.8 °F48.2 °F88 %29.96 in4.0 miCalmPartly Cloudy
2:15 AM51.8 °F48.2 °F88 %29.95 in4.0 miCalmPartly Cloudy
2:35 AM50.0 °F46.4 °F87 %29.97 in0.2 miCalm
2:55 AM48.2 °F44.6 °F87 %29.97 in0.2 miCalmOvercast
3:15 AM48.2 °F44.6 °F87 %29.97 in0.5 miCalmOvercast
3:35 AM48.2 °F42.8 °F82 %29.98 in0.2 miCalmOvercast
3:55 AM50.0 °F46.4 °F87 %29.97 in0.2 miCalmOvercast
4:15 AM50.0 °F46.4 °F87 %29.97 in0.2 miCalmOvercast
4:35 AM48.2 °F44.6 °F87 %29.96 in0.2 miCalmOvercast
4:55 AM48.2 °F44.6 °F87 %29.95 in0.2 miSSE (160°)4.6 mphOvercast
5:15 AM50.0 °F46.4 °F87 %29.96 in0.2 miSouth (180°)4.6 mphOvercast
5:35 AM50.0 °F46.4 °F87 %29.96 in0.2 miCalmOvercast
5:55 AM48.2 °F44.6 °F87 %29.94 in0.5 miESE (120°)5.8 mph0.04 inOvercast
6:15 AM50.0 °F46.4 °F87 %29.97 in0.8 miSouth (170°)6.9 mph0.05 inOvercast
6:35 AM50.0 °F46.4 °F87 %29.96 in0.5 miSouth (170°)4.6 mph0.07 inOvercast
6:55 AM50.0 °F46.4 °F87 %29.96 in0.5 miCalm0.09 inOvercast
7:15 AM50.0 °F46.4 °F87 %29.96 in0.5 miCalm0.02 inOvercast
7:35 AM50.0 °F46.4 °F87 %29.98 in0.2 miSouth (180°)4.6 mph0.02 inOvercast
7:55 AM51.8 °F46.4 °F82 %29.98 in0.2 miSouth (170°)4.6 mph0.02 inOvercast
8:15 AM51.8 °F48.2 °F88 %29.97 in1.0 miSouth (180°)4.6 mph0.02 inOvercast
8:35 AM51.8 °F46.4 °F82 %29.95 in0.5 miSE (140°)4.6 mph0.04 inOvercast
8:55 AM51.8 °F46.4 °F82 %29.94 in0.2 miSSE (160°)3.5 mph0.05 inOvercast
9:15 AM51.8 °F46.4 °F82 %29.94 in0.2 miCalm0.01 inOvercast
9:35 AM50.0 °F46.4 °F87 %29.97 in2.5 miWNW (300°)11.5 mph0.03 inOvercast
9:55 AM48.2 °F44.6 °F87 %29.98 in4.0 miNNW (330°)11.5 mph0.04 inOvercast
10:15 AM46.4 °F42.8 °F87 %30.00 in6.0 miWNW (300°)10.4 mphOvercast
10:35 AM46.4 °F42.8 °F87 %29.98 in4.0 miNW (310°)6.9 mph0.01 inOvercast
10:55 AM46.4 °F42.8 °F87 %29.99 in4.0 miWNW (300°)3.5 mph0.02 inOvercast
11:15 AM46.4 °F42.8 °F87 %30.00 in4.0 miWest (270°)4.6 mph0.02 inOvercast
11:35 AM46.4 °F42.8 °F87 %29.99 in5.0 miWest (280°)3.5 mph0.06 inOvercast
11:55 AM46.4 °F42.8 °F87 %29.98 in6.0 miWNW (290°)3.5 mph0.08 inOvercast
12:15 PM46.4 °F42.8 °F87 %29.99 in6.0 miWest (280°)5.8 mph0.01 inOvercast
12:35 PM46.4 °F42.8 °F87 %29.98 in5.0 miCalm0.03 inOvercast
12:55 PM46.4 °F42.8 °F87 %29.96 in7.0 miCalm0.04 inOvercast
1:15 PM46.4 °F42.8 °F87 %29.96 in7.0 miCalmOvercast
1:35 PM46.4 °F42.8 °F87 %29.96 in8.0 miWest (280°)4.6 mphOvercast
1:55 PM46.4 °F41.0 °F81 %29.97 in5.0 miWNW (290°)5.8 mph0.03 inOvercast
2:15 PM44.6 °F41.0 °F87 %29.97 in9.0 miWNW (290°)3.5 mph0.01 inOvercast
2:35 PM44.6 °F41.0 °F87 %29.95 in7.0 miNW (320°)5.8 mph0.01 inOvercast
2:55 PM44.6 °F41.0 °F87 %29.98 in8.0 miNW (310°)4.6 mph0.01 inOvercast
3:15 PM44.6 °F41.0 °F87 %29.99 in10.0 miNW (310°)6.9 mph0.01 inOvercast
3:35 PM44.6 °F39.2 °F81 %29.99 in10.0 miWNW (300°)5.8 mph0.01 inMostly Cloudy
3:55 PM44.6 °F39.2 °F81 %30.01 in10.0 miWest (270°)4.6 mph0.01 inMostly Cloudy
4:15 PM44.6 °F39.2 °F81 %30.01 in10.0 miWest (270°)4.6 mphMostly Cloudy
4:35 PM44.6 °F39.2 °F81 %30.03 in10.0 miWest (270°)6.9 mphOvercast
4:55 PM42.8 °F37.4 °F81 %30.03 in10.0 miWNW (290°)15.0 mph19.6 mphOvercast
5:15 PM41.0 °F35.6 °F81 %30.06 in10.0 miNNW (330°)16.1 mph25.3 mphOvercast
5:35 PM39.2 °F32.0 °F75 %30.07 in10.0 miNW (320°)18.4 mph25.3 mphOvercast
5:55 PM37.4 °F30.2 °F75 %30.09 in10.0 miNW (320°)12.7 mph21.9 mphOvercast
6:15 PM35.6 °F30.2 °F81 %30.10 in10.0 miNW (320°)13.8 mph19.6 mphOvercast
6:35 PM35.6 °F30.2 °F81 %30.10 in10.0 miNNW (340°)9.2 mphOvercast
6:55 PM35.6 °F28.4 °F75 %30.11 in10.0 miNNW (330°)12.7 mph16.1 mphOvercast
7:15 PM35.6 °F28.4 °F75 %30.11 in10.0 miNW (320°)10.4 mphOvercast
7:35 PM35.6 °F26.6 °F70 %30.12 in10.0 miNW (310°)12.7 mph23.0 mphOvercast
7:55 PM33.8 °F26.6 °F75 %30.11 in10.0 miNW (310°)13.8 mph19.6 mphOvercast
8:15 PM33.8 °F26.6 °F75 %30.11 in10.0 miWNW (300°)11.5 mph17.3 mphOvercast
8:35 PM33.8 °F24.8 °F70 %30.11 in10.0 miNW (310°)10.4 mphOvercast
8:55 PM33.8 °F24.8 °F70 %30.13 in10.0 miNW (310°)11.5 mph18.4 mphOvercast
9:15 PM33.8 °F24.8 °F70 %30.14 in10.0 miNW (310°)12.7 mph18.4 mphOvercast
9:35 PM33.8 °F24.8 °F70 %30.14 in10.0 miNW (320°)11.5 mph18.4 mphOvercast
9:55 PM33.8 °F21.2 °F60 %30.14 in10.0 miNW (310°)18.4 mph23.0 mphOvercast
10:15 PM32.0 °F19.4 °F60 %30.15 in10.0 miNW (320°)11.5 mph25.3 mphMostly Cloudy
10:35 PM30.2 °F19.4 °F64 %30.14 in10.0 miNW (310°)16.1 mph20.7 mphMostly Cloudy
10:55 PM30.2 °F19.4 °F64 %30.14 in10.0 miNW (320°)11.5 mph18.4 mphOvercast
11:15 PM30.2 °F19.4 °F64 %30.15 in10.0 miNNW (330°)9.2 mphMostly Cloudy
11:35 PM30.2 °F17.6 °F60 %30.14 in10.0 miNNW (340°)10.4 mphOvercast
11:55 PM30.2 °F17.6 °F60 %30.14 in10.0 miNW (310°)17.3 mphMostly Cloudy
Hourly data recorded from KMSV, located miles away from Rock Hill, New York







STORIES FROM OUR PARTNERS